Cleveland Burke, OH

12:46 PM EDT on June 23, 2017 (GMT -0400)
Burke Lakefront

Weather History for KBKL - November, 2012

Change the Weather History Date:

Friday, November 30, 2012

  Actual Average Record
Temperature  
Mean Temperature 44 °F -  
Max Temperature 50 °F 44 °F 68 °F (1998)
Min Temperature 37 °F 34 °F 28 °F (1999)
Degree Days  
Heating Degree Days 22    
Moisture  
Dew Point 30 °F    
Average Humidity 61    
Maximum Humidity 86    
Minimum Humidity 43    
Precipitation  
Precipitation 0.00 in - - ()
Sea Level Pressure  
Sea Level Pressure 30.21 in    
Wind  
Wind Speed 8 mph (ESE)    
Max Wind Speed 10 mph    
Max Gust Speed -    
Visibility 8 miles    
Events      
Averages and records for this station are not official NWS values.
T = Trace of Precipitation, MM = Missing Value Source: NWS Daily Summary

Daily Weather History Graph

Daily Weather History Graph

Search for Another Location

Airport or City:

Trip Planner

Search our weather history database for the weather conditions in past years. The results will help you decide how hot, cold, wet, or windy it might be!

Date:

Astronomy

Nov. 30, 2012 Rise Set
Actual Time 7:33 AM EST 4:57 PM EST
Civil Twilight 7:02 AM EST 5:28 PM EST
Nautical Twilight 6:27 AM EST 6:03 PM EST
Astronomical Twilight 5:54 AM EST 6:36 PM EST
Moon 6:51 PM EST (11/30) 9:04 AM EST (11/30)
Length of Visible Light 10h 26m
Length of Day
9h 24m
Waning Gibbous, 96% of the Moon is Illuminated
Nov 30
Waning Gibbous
Dec 6
Last Quarter
Dec 13
New
Dec 20
First Quarter
Dec 28
Full

Hourly Weather History & Observations

Time (EST) Temp. Windchill Dew Point Humidity Pressure Visibility Wind Dir Wind Speed Gust Speed Precip Events Conditions
12:53 AM 37.0 °F 31.0 °F 23.0 °F 57% 30.27 in 10.0 mi SSE 8.1 mph - N/A   Overcast
1:53 AM 37.9 °F 32.7 °F 23.0 °F 55% 30.26 in 10.0 mi SSE 6.9 mph - N/A   Overcast
2:53 AM 37.9 °F 32.1 °F 23.0 °F 55% 30.25 in 10.0 mi SSE 8.1 mph - N/A   Overcast
3:53 AM 37.9 °F 32.1 °F 23.0 °F 55% 30.25 in 10.0 mi SSE 8.1 mph - N/A   Overcast
4:53 AM 39.0 °F 32.3 °F 23.0 °F 53% 30.23 in 10.0 mi SSE 10.4 mph - N/A   Overcast
5:53 AM 37.9 °F 31.5 °F 23.0 °F 55% 30.23 in 10.0 mi SSE 9.2 mph - N/A   Mostly Cloudy
6:53 AM 39.0 °F 32.3 °F 24.1 °F 55% 30.22 in 10.0 mi SSE 10.4 mph - N/A   Partly Cloudy
7:53 AM 37.9 °F 31.5 °F 24.1 °F 57% 30.23 in 6.0 mi SSE 9.2 mph - N/A   Haze
8:53 AM 39.9 °F 33.4 °F 25.0 °F 55% 30.23 in 8.0 mi SSE 10.4 mph - N/A   Clear
9:53 AM 41.0 °F 34.7 °F 26.1 °F 55% 30.24 in 8.0 mi SSE 10.4 mph - N/A   Mostly Cloudy
10:53 AM 45.0 °F 40.6 °F 27.0 °F 49% 30.23 in 10.0 mi SSE 8.1 mph - N/A   Overcast
11:53 AM 46.9 °F - 28.0 °F 48% 30.21 in 2.5 mi SSE 5.8 mph - N/A   Haze
12:01 PM 46.4 °F 43.5 °F 28.4 °F 50% 30.20 in 7.0 mi South 5.8 mph - N/A   Overcast
12:19 PM 48.2 °F - 28.4 °F 46% 30.19 in 7.0 mi Calm Calm - N/A   Overcast
12:53 PM 48.9 °F - 28.0 °F 44% 30.18 in 5.0 mi Calm Calm - N/A   Haze
1:20 PM 50.0 °F - 28.4 °F 43% 30.15 in 2.5 mi Variable 3.5 mph - N/A   Haze
1:30 PM 50.0 °F - 30.2 °F 47% 30.16 in 4.0 mi NNE 5.8 mph - N/A   Haze
1:53 PM 46.0 °F 41.9 °F 36.0 °F 68% 30.17 in 8.0 mi NE 8.1 mph - N/A   Haze
2:53 PM 46.0 °F 44.8 °F 37.0 °F 71% 30.17 in 10.0 mi NE 3.5 mph - N/A   Partly Cloudy
3:53 PM 50.0 °F - 28.9 °F 44% 30.16 in 7.0 mi South 9.2 mph - N/A   Mostly Cloudy
4:53 PM 44.1 °F 39.5 °F 39.0 °F 82% 30.19 in 9.0 mi NNE 8.1 mph - N/A   Mostly Cloudy
5:53 PM 43.0 °F 38.2 °F 39.0 °F 86% 30.20 in 9.0 mi NE 8.1 mph - N/A   Overcast
6:53 PM 43.0 °F 38.2 °F 39.0 °F 86% 30.21 in 9.0 mi NE 8.1 mph - N/A   Mostly Cloudy
7:53 PM 41.0 °F 36.4 °F 35.1 °F 79% 30.22 in 9.0 mi NE 6.9 mph - N/A   Clear
8:53 PM 42.1 °F 36.6 °F 36.0 °F 79% 30.23 in 10.0 mi NE 9.2 mph - N/A   Overcast
9:53 PM 41.0 °F 36.4 °F 35.1 °F 79% 30.23 in 9.0 mi ENE 6.9 mph - N/A   Mostly Cloudy
10:53 PM 39.9 °F 35.1 °F 35.1 °F 83% 30.23 in 9.0 mi NE 6.9 mph - N/A   Mostly Cloudy
11:53 PM 39.9 °F 37.8 °F 34.0 °F 79% 30.22 in 9.0 mi ENE 3.5 mph - N/A   Mostly Cloudy